Wind_Speed
32 33 33 30 27 27 26 24 21 20 18 18 17 15 14 15 17 20 22 24 27 29 29 29 29 30 32 34 36 38 39 41 43 44 46 47 48 50 51 53 56 58 60 60 60 59 58 57 56 57 58 58 57 56 56 55 55 53 51 49 48 46 44 42 40 39 38 37 34 33 34 34 33 33 34 33 33 32 30 29 29 29 29 28 28 28 29
33 32 33 32 30 29 29 26 23 22 21 19 18 17 16 16 18 21 23 25 27 29 30 31 30 31 32 34 36 37 38 40 41 43 45 46 48 49 50 52 54 57 59 61 62 62 61 61 59 58 58 58 59 58 57 57 57 57 56 54 52 50 48 47 45 44 42 42 40 38 38 38 36 34 34 35 35 35 34 31 31 31 30 30 30 29 29
36 34 32 32 31 31 31 30 27 25 25 22 20 18 17 17 19 21 22 25 28 28 29 32 32 32 32 33 35 37 38 39 41 42 43 45 47 48 50 51 53 55 57 59 62 63 63 63 63 62 61 60 59 59 59 59 59 60 60 58 56 54 53 51 50 49 47 46 46 45 44 43 40 38 37 37 37 37 37 35 33 33 32 32 32 31 31
38 35 32 31 32 32 31 31 30 29 29 26 22 19 18 18 19 21 22 25 27 27 29 32 33 34 32 32 34 36 37 37 39 41 43 44 46 48 49 50 52 53 54 56 59 62 64 65 65 65 64 63 62 61 60 59 59 60 61 61 60 58 57 56 55 54 53 52 51 50 49 48 46 44 43 42 41 40 40 39 37 35 35 35 35 34 34
37 34 32 31 32 32 31 32 34 33 32 29 25 22 20 20 20 21 22 24 26 28 30 32 33 33 34 33 34 35 35 36 37 39 41 43 45 46 48 49 51 52 53 54 56 58 61 64 66 66 67 66 65 64 63 62 61 60 60 61 61 61 61 60 60 59 58 57 55 55 54 53 51 50 49 48 46 44 41 41 40 39 38 37 38 38 38
36 34 32 31 31 31 32 34 36 36 35 32 29 26 23 22 21 21 22 24 25 27 31 33 34 34 34 35 35 35 36 36 36 37 39 40 43 45 47 48 50 51 52 53 54 56 57 60 63 65 67 68 68 68 68 67 65 64 62 62 62 62 62 63 63 63 63 62 60 59 59 58 56 54 53 52 52 49 46 43 42 41 41 39 39 39 40
36 35 33 31 29 30 33 36 37 37 36 34 33 30 26 24 23 22 22 23 24 26 30 33 35 35 35 36 36 36 37 37 37 37 38 39 41 43 45 47 48 49 50 51 53 54 56 57 59 61 63 65 67 68 69 70 70 70 69 68 66 65 64 64 64 65 65 65 64 64 63 62 61 59 58 56 55 54 53 50 48 46 44 43 42 41 41
38 36 34 31 30 31 35 37 38 38 37 36 35 34 30 27 25 24 24 24 24 25 29 32 34 35 36 37 37 37 37 38 39 39 39 40 41 41 42 44 46 47 48 50 51 53 54 55 57 58 59 60 62 63 65 67 69 70 71 71 71 71 70 69 68 67 67 67 66 66 66 66 64 63 62 61 60 59 58 57 55 52 50 48 47 45 43
41 38 36 33 31 33 36 39 39 40 40 39 38 36 34 30 27 26 26 25 24 25 28 30 31 33 37 39 39 38 38 38 39 40 40 40 40 40 41 41 43 44 46 48 50 51 52 54 55 56 57 58 59 60 60 62 63 65 66 67 68 69 70 70 70 70 69 69 68 67 67 67 66 66 65 64 63 62 62 61 59 58 56 54 52 50 47
45 42 38 36 33 33 37 41 41 41 42 42 41 39 37 34 31 30 29 28 26 25 26 27 26 28 34 39 40 40 39 39 40 40 40 40 40 40 41 41 40 41 42 44 47 49 51 52 53 54 55 56 57 57 58 58 59 60 61 62 62 63 64 64 64 65 65 65 65 65 65 65 65 66 66 66 65 64 64 64 63 62 61 59 58 56 53
46 43 40 38 36 36 38 42 42 41 42 42 41 40 39 37 36 34 33 32 29 26 25 25 24 25 30 36 39 41 41 40 39 39 40 40 41 41 41 40 39 39 40 41 43 46 48 50 51 52 53 54 55 56 56 56 57 57 58 59 59 59 59 59 59 60 60 60 60 60 61 62 63 63 65 66 66 65 65 66 66 66 65 64 63 62 60
45 43 41 40 40 39 40 41 42 42 42 42 40 39 38 38 39 39 36 34 32 28 26 25 24 25 29 33 37 40 41 41 40 40 40 40 40 40 40 40 39 38 38 39 41 42 44 46 48 49 51 52 53 54 54 55 55 55 55 56 57 57 57 57 57 57 57 58 58 57 57 58 59 60 62 64 64 65 65 67 68 68 69 68 67 66 65
45 45 43 42 42 42 42 42 42 42 42 41 39 38 38 39 41 41 39 37 34 30 28 26 25 26 27 31 36 39 40 40 40 40 41 40 39 40 40 40 40 39 39 39 40 40 41 42 44 46 48 49 50 51 52 53 53 53 54 54 54 55 55 55 55 56 56 56 57 57 56 56 56 56 57 59 61 62 64 66 68 69 71 71 71 70 69
48 47 46 45 43 43 44 42 40 40 41 40 39 39 39 40 41 41 40 39 37 32 29 28 27 26 27 29 34 39 41 40 40 40 40 40 39 39 40 40 41 41 40 39 39 39 40 41 42 43 44 45 47 48 50 50 51 52 52 52 52 53 53 54 54 54 55 55 56 57 57 57 56 56 55 55 57 59 61 64 67 69 71 72 73 73 72
51 49 48 46 44 44 44 43 40 39 40 41 40 40 41 42 42 42 41 40 38 34 30 29 28 27 27 28 31 36 40 41 40 40 39 39 39 39 39 39 40 40 40 39 38 38 38 39 40 41 42 43 44 46 47 48 49 49 50 51 51 51 52 53 53 53 53 54 55 56 56 57 57 57 56 55 55 56 57 60 63 67 70 72 74 75 75
53 51 49 47 45 45 45 44 41 40 41 41 40 41 43 44 43 42 40 40 39 35 31 30 30 28 28 29 30 34 39 41 41 40 39 38 38 38 39 39 38 38 38 39 38 37 36 37 37 38 40 41 43 44 45 46 46 46 47 49 50 50 51 52 52 53 53 53 53 54 55 56 57 58 58 57 56 56 56 56 58 61 65 69 73 75 77
54 53 50 48 47 46 45 44 43 42 42 42 40 39 43 45 43 41 40 40 39 37 34 32 31 30 29 30 31 33 38 40 40 40 39 38 37 38 38 38 38 37 37 37 38 37 36 35 35 36 37 39 40 42 43 44 44 44 45 46 47 48 49 50 50 51 52 52 53 53 54 55 56 57 58 58 58 58 58 57 57 58 60 64 68 73 76
55 54 52 50 48 48 47 45 44 44 44 44 41 39 42 45 44 42 41 41 39 38 36 34 32 31 31 32 32 33 36 39 40 40 39 37 37 37 37 37 37 37 37 37 38 38 36 35 34 35 35 37 38 39 40 41 42 42 43 43 44 45 46 46 47 48 49 50 51 52 53 54 55 56 56 57 58 59 59 59 58 58 59 60 63 68 72
55 55 54 52 50 50 49 47 45 46 47 46 43 40 42 44 44 43 42 41 40 39 37 35 34 33 33 34 34 34 35 37 39 39 38 36 36 36 36 36 37 36 37 37 37 37 37 36 34 34 34 35 36 37 38 39 40 40 40 41 42 42 43 43 44 45 46 46 47 48 50 52 53 54 55 56 57 58 59 59 59 59 59 59 61 63 66
57 57 56 53 52 51 50 48 46 47 48 47 45 42 43 45 44 44 43 42 41 39 37 35 35 35 35 35 35 34 34 37 38 38 37 34 34 34 35 35 35 36 36 36 36 37 36 35 34 33 33 33 34 36 37 37 38 38 38 39 40 40 41 41 42 42 43 43 43 44 46 48 49 51 53 54 55 56 57 58 59 59 58 58 59 61 63
57 58 56 54 53 52 51 49 48 48 49 49 47 45 45 46 45 44 44 44 41 39 37 36 37 36 36 37 36 35 35 37 38 37 35 33 32 33 34 34 35 34 34 34 35 34 34 34 33 32 32 32 33 34 35 36 36 36 37 38 38 39 39 40 40 40 41 41 41 41 42 44 45 47 49 50 52 53 54 55 56 57 57 57 57 59 60
57 57 55 54 54 53 51 50 50 50 50 50 49 47 47 48 46 45 46 44 41 38 37 37 38 37 37 37 37 35 35 37 37 35 33 32 32 33 34 34 33 33 33 33 33 32 32 32 31 30 31 31 32 33 33 34 34 35 35 36 37 37 38 38 39 39 40 41 41 41 42 43 44 46 47 49 50 51 52 53 54 55 56 56 56 57 58
58 57 56 55 54 53 52 52 52 52 52 52 51 49 49 50 49 47 47 45 40 37 37 38 38 37 36 37 36 35 35 37 36 34 33 33 33 33 33 32 32 32 32 32 31 31 31 30 30 30 30 30 31 31 32 32 33 33 34 34 35 36 36 37 37 37 38 40 41 42 43 44 45 46 47 48 49 50 51 52 53 54 54 54 55 55 56
59 58 57 56 55 55 54 54 54 53 53 53 52 52 51 52 51 50 48 44 40 36 36 38 39 37 36 36 35 35 36 37 36 35 34 34 33 32 31 32 32 32 32 31 30 30 29 29 29 28 28 29 29 29 30 31 32 33 33 34 34 34 35 35 35 36 37 38 39 41 42 43 44 45 46 47 47 48 49 50 50 51 52 52 53 53 54
60 59 57 56 56 55 55 54 54 54 53 54 54 53 52 51 49 48 45 42 39 37 36 38 39 37 36 36 35 34 36 37 36 36 35 34 32 31 31 32 32 32 31 31 30 29 28 28 27 27 27 27 27 27 28 29 31 33 34 34 34 34 34 34 35 36 37 37 38 39 40 41 42 43 44 44 45 45 46 46 47 48 48 49 50 51 51
58 59 57 55 54 54 53 53 54 55 55 55 55 53 51 48 45 43 40 39 38 37 34 33 34 35 35 35 35 34 35 36 37 36 34 33 32 31 31 31 31 31 31 30 29 29 28 27 26 27 27 27 26 25 26 27 30 32 34 34 34 34 34 34 35 36 36 37 37 37 38 39 40 41 42 42 42 42 43 43 43 44 45 46 47 48 49
55 57 57 55 53 53 54 54 53 54 55 55 53 48 44 40 39 38 36 35 36 36 32 29 29 30 32 34 34 33 34 36 36 35 34 32 31 31 30 30 30 31 31 30 29 29 28 27 26 26 26 26 25 25 25 26 28 31 33 34 35 34 34 34 35 35 35 35 35 36 37 38 39 39 40 40 40 40 40 40 41 42 42 43 44 46 47
52 53 54 54 54 55 56 55 53 52 51 48 43 39 37 36 37 38 36 34 34 34 31 29 29 29 30 32 32 32 32 34 35 35 33 33 31 30 29 30 30 30 30 30 29 28 27 26 25 25 25 26 25 25 25 26 28 30 32 34 34 34 34 34 34 34 34 34 34 35 36 36 37 38 39 39 38 38 38 38 38 38 38 39 40 40 42
48 49 50 52 53 54 55 54 52 50 48 43 39 40 43 43 42 40 37 34 33 32 30 29 28 27 26 28 30 31 30 32 34 35 34 33 32 30 29 28 28 28 29 29 28 27 26 25 24 24 24 25 25 24 25 26 28 30 31 33 34 34 34 34 33 33 33 33 34 34 35 35 36 37 37 37 36 35 35 34 33 33 32 32 32 33 34
45 46 47 49 50 51 52 52 50 50 50 48 46 47 49 48 45 40 35 32 32 31 29 27 24 22 21 22 25 28 29 31 34 35 34 33 32 29 27 27 27 27 27 27 27 26 25 24 23 23 23 24 24 24 24 25 27 29 31 31 32 33 33 33 33 33 33 34 34 34 35 35 35 36 35 35 33 32 31 30 29 28 28 28 28 27 27
43 44 45 46 47 48 49 50 50 51 51 50 49 50 50 48 45 40 35 33 34 33 30 26 22 19 18 20 22 24 29 32 34 35 35 34 31 29 27 27 27 27 27 26 25 25 24 23 23 23 23 23 24 24 24 24 26 28 29 31 31 32 32 32 33 33 34 34 34 35 35 34 35 35 34 33 31 30 28 28 28 28 27 26 25 25 24
41 42 43 44 45 46 47 49 50 51 51 50 49 50 50 48 45 41 38 37 36 33 30 26 22 17 16 19 22 25 29 33 34 35 35 33 30 28 28 27 27 26 25 24 23 23 23 23 23 23 23 23 24 24 24 24 25 26 28 29 30 31 31 32 32 33 33 34 34 35 34 34 34 34 33 32 30 29 28 28 28 28 26 25 25 24 24
39 40 41 42 43 44 45 47 49 50 50 49 49 49 49 47 43 39 37 37 36 34 33 29 23 19 19 21 23 26 30 34 35 35 34 31 29 29 29 27 24 22 21 20 20 20 21 21 22 22 23 24 24 25 25 25 25 26 27 28 30 30 31 32 32 33 33 34 34 35 34 34 33 33 33 32 31 30 29 29 29 28 27 26 25 25 24
36 38 38 39 40 40 42 45 46 47 47 47 47 47 46 43 38 35 35 35 36 36 35 31 27 26 29 29 26 25 30 35 37 36 33 31 31 31 29 26 23 21 20 19 20 19 19 20 20 21 22 23 24 25 25 25 26 27 28 29 30 30 31 32 33 34 34 34 35 35 34 34 34 34 34 33 32 31 30 30 30 29 28 27 27 26 26
34 35 35 35 36 37 39 42 43 43 44 45 45 44 43 41 36 35 35 35 36 39 41 36 32 34 37 37 33 29 29 35 38 37 34 32 31 32 31 28 25 22 20 20 21 21 21 21 21 20 21 22 23 24 24 24 25 27 28 29 30 31 32 33 34 34 34 34 34 34 34 33 34 34 34 33 33 32 32 31 30 30 29 28 28 27 27
32 32 32 33 34 35 36 38 39 41 42 44 44 43 43 41 38 37 38 36 37 42 47 42 36 36 40 41 37 31 31 36 39 38 35 32 32 33 33 31 28 25 23 22 22 22 21 21 21 20 20 20 21 22 23 23 24 26 27 29 30 31 32 33 33 33 33 33 33 33 33 34 34 35 35 34 34 33 33 32 32 31 30 29 29 28 28
31 32 33 34 34 34 34 34 36 38 40 41 41 40 41 40 38 37 39 38 39 45 50 47 41 39 44 45 42 38 38 40 41 39 36 34 33 34 34 32 30 28 27 26 25 23 22 22 22 22 21 21 21 22 22 23 24 25 26 27 28 30 31 32 32 32 32 32 32 33 34 35 35 36 35 35 35 34 34 34 33 32 31 30 30 29 29
33 33 34 34 33 32 31 31 31 32 34 34 33 33 34 35 36 37 40 42 43 46 48 47 45 44 46 47 45 42 41 41 41 41 40 37 35 34 34 33 33 33 32 30 27 25 24 24 25 25 25 25 25 25 24 23 23 23 23 24 26 28 29 30 31 31 31 32 32 33 35 35 36 36 36 36 36 36 35 35 34 33 33 32 31 31 31
31 32 32 32 31 30 29 29 28 28 29 29 29 29 29 31 33 37 40 44 46 47 47 46 45 46 46 45 43 41 40 40 42 43 42 40 38 37 34 32 33 36 36 32 27 26 26 26 25 25 26 27 28 28 27 25 23 22 21 22 24 25 27 28 29 31 31 32 33 34 35 36 36 36 37 36 36 36 36 36 35 35 34 33 33 33 33
26 28 30 31 31 31 30 30 29 28 27 26 27 28 29 31 34 38 42 44 46 47 46 45 45 46 47 45 42 40 39 41 43 44 42 40 40 40 36 32 33 36 37 33 27 25 26 26 26 27 28 29 29 29 29 26 24 22 21 21 22 23 25 26 27 29 31 32 33 34 36 37 37 37 37 37 37 37 37 37 37 36 36 35 35 35 34
24 26 28 30 31 31 31 30 29 28 28 28 28 29 29 30 34 40 44 45 45 45 45 46 47 48 49 47 43 40 39 41 43 44 42 41 41 41 38 34 34 36 35 32 28 28 28 28 28 30 30 30 30 30 30 28 24 22 21 21 21 22 23 25 26 28 30 32 34 35 36 37 38 38 38 39 38 39 39 39 39 38 38 37 37 37 37
25 27 28 29 29 30 30 29 28 28 28 29 30 30 30 30 34 39 44 45 44 44 45 47 48 49 49 47 45 42 40 40 41 42 43 43 43 42 39 37 36 35 34 33 32 33 32 31 31 32 32 31 31 30 29 28 26 23 22 22 22 22 23 24 25 27 30 32 34 35 36 37 38 38 39 39 40 40 41 41 41 40 40 40 39 39 39
26 27 28 29 29 29 29 28 27 28 29 30 30 30 30 31 34 37 41 43 43 43 43 45 46 47 47 47 45 44 42 42 42 42 43 44 44 43 42 40 39 38 37 36 36 36 33 31 31 32 32 32 31 30 29 28 27 25 24 23 23 23 24 24 25 27 29 31 33 35 36 36 37 37 38 39 40 41 42 42 42 41 41 41 41 40 40
23 24 25 26 27 28 29 28 27 28 30 31 31 31 32 33 34 36 39 42 43 43 43 44 45 46 47 47 46 45 44 43 43 43 44 44 44 44 43 42 40 40 40 39 39 38 35 31 30 31 30 30 30 30 29 28 28 27 26 25 25 25 25 25 26 27 28 31 33 35 36 36 37 38 38 39 39 40 40 41 41 41 41 41 41 41 41
18 18 18 19 20 21 24 25 27 28 30 32 32 33 34 35 35 36 38 40 42 43 43 44 45 46 46 47 46 45 44 44 44 44 45 46 46 45 43 42 42 43 44 42 42 41 39 35 33 33 32 31 31 30 29 28 29 29 28 27 27 26 26 26 27 28 28 30 33 35 36 37 38 39 39 39 39 39 39 40 41 41 41 41 41 42 42
19 18 18 18 18 18 19 21 23 26 28 30 32 34 35 36 37 38 39 40 41 42 43 44 45 46 47 47 47 46 46 45 45 46 46 47 47 46 45 44 45 47 47 46 45 45 44 42 39 38 36 35 33 32 30 29 29 29 30 29 28 27 26 27 28 29 30 31 32 34 37 38 39 39 39 39 39 39 40 40 40 41 41 41 42 43 44
20 21 21 21 21 21 21 22 23 24 26 28 30 31 33 35 36 38 39 40 41 42 43 44 45 46 47 48 49 49 49 48 48 48 48 49 49 48 48 48 49 50 50 48 46 47 48 48 46 44 42 40 38 35 32 31 30 30 30 30 29 28 28 28 29 30 31 32 33 34 35 37 39 40 41 41 41 41 41 41 41 42 42 43 44 45 45
19 20 22 23 24 25 26 26 26 27 28 29 29 30 31 32 33 35 36 38 39 40 41 43 44 46 47 48 50 51 52 52 52 53 52 52 52 51 51 52 53 54 54 53 51 51 52 52 52 50 48 46 43 40 37 34 32 30 31 32 32 30 29 30 30 30 31 32 33 33 34 35 37 38 39 40 41 41 42 42 42 42 43 43 44 44 44
19 20 21 22 24 26 27 29 30 31 31 32 32 32 32 33 32 33 34 35 36 38 39 41 42 44 46 47 49 51 53 55 56 57 57 57 57 56 55 55 56 58 59 59 57 53 51 52 55 56 55 52 48 46 43 39 35 32 33 34 34 32 31 30 30 30 30 31 32 33 33 34 34 35 36 37 38 39 40 40 41 41 42 42 43 43 44
21 22 22 23 24 25 26 28 30 31 32 33 33 34 34 35 35 36 36 37 38 39 40 41 42 43 44 46 48 50 52 55 57 59 61 62 63 63 62 61 60 60 62 63 61 56 52 50 52 55 58 57 54 51 48 44 38 34 35 36 35 33 32 31 31 31 31 31 31 31 32 33 33 33 34 35 36 37 37 38 39 40 41 42 43 44 45
22 23 24 24 25 25 26 27 28 29 30 30 31 31 32 32 32 32 32 33 33 34 34 35 36 37 38 39 40 42 45 48 51 54 57 61 64 65 66 67 66 64 64 65 65 64 63 60 57 55 55 56 56 56 54 49 42 37 37 38 38 36 35 35 34 33 33 32 32 32 32 32 33 33 34 34 35 36 37 38 40 41 42 44 45 47 48
20 21 21 22 22 22 23 23 23 24 24 24 24 23 22 21 20 21 21 22 22 23 24 25 26 27 29 30 32 34 36 38 40 42 46 50 54 58 62 65 67 68 69 69 68 67 68 68 66 65 63 61 58 57 55 51 45 41 41 41 41 40 40 39 38 37 36 34 34 34 34 33 33 34 34 35 36 38 39 41 42 44 46 48 49 51 52
Wind_Direction
272 276 281 285 287 287 288 288 289 290 293 298 303 304 299 294 290 280 270 261 254 248 243 242 243 244 243 241 239 236 234 232 232 231 232 233 233 232 231 231 230 229 228 228 227 227 228 230 232 232 233 234 233 230 228 228 229 230 231 232 233 231 229 229 233 236 240 244 243 237 235 236 238 239 240 239 238 238 235 233 232 233 232 232 233 233 234
268 271 275 281 283 284 286 287 285 283 284 288 294 300 305 303 298 290 280 270 263 255 247 241 239 241 242 241 240 239 236 234 233 232 232 232 233 233 232 232 232 231 230 229 229 229 228 229 231 233 234 235 235 234 232 231 231 232 233 233 234 234 232 231 234 237 239 243 246 244 241 239 239 240 244 244 244 243 242 239 236 235 235 236 236 236 236
263 265 269 275 279 280 283 286 283 279 278 281 283 288 297 303 301 298 291 279 273 268 260 249 242 240 240 241 241 241 239 237 235 234 233 233 233 234 234 233 233 233 232 232 231 231 231 230 230 231 234 235 236 236 236 235 234 234 234 234 234 235 235 234 235 237 240 242 246 248 247 245 242 242 246 249 248 247 246 244 241 240 241 241 240 240 239
261 263 267 272 275 278 280 281 279 276 276 279 279 279 283 290 295 298 294 286 281 279 273 261 250 244 241 242 243 243 242 241 239 237 236 235 234 235 235 235 235 234 234 234 233 232 233 233 233 233 233 234 236 237 238 238 238 236 236 236 236 236 238 237 237 238 240 242 245 248 249 248 246 246 248 250 250 249 248 246 245 244 244 244 244 243 242
260 263 268 271 274 277 277 274 273 274 275 276 278 277 276 278 285 290 292 290 287 282 276 270 262 252 245 242 243 243 243 242 242 241 239 237 236 235 235 236 236 236 236 235 235 235 234 234 235 235 235 236 236 237 238 239 240 240 239 238 238 238 239 239 239 239 240 242 244 246 248 249 249 250 250 249 250 250 248 246 247 247 246 246 246 245 244
260 265 269 271 274 276 272 268 270 272 273 273 275 276 275 272 275 282 287 290 290 284 275 271 267 260 251 245 242 242 241 240 240 240 240 239 238 237 236 236 236 236 237 237 237 237 237 237 236 237 237 238 238 239 239 240 240 241 241 241 240 240 240 240 240 240 240 242 244 246 248 250 251 252 252 249 248 248 246 245 247 249 250 250 249 247 246
264 267 269 270 272 270 265 265 267 268 269 271 273 275 274 272 271 274 279 284 288 287 278 270 267 264 258 251 246 243 242 240 238 238 238 238 239 239 238 237 237 236 237 237 238 238 239 239 239 239 239 239 240 240 240 241 241 241 242 243 243 243 242 242 242 242 242 242 243 245 247 249 251 251 251 249 247 245 244 244 245 247 248 249 250 250 250
266 267 268 268 268 264 260 261 264 264 264 267 270 273 274 273 270 271 273 277 282 286 281 274 269 266 262 256 252 248 246 244 242 239 238 238 238 238 239 239 239 239 238 238 238 239 239 239 240 240 240 240 241 241 241 242 242 242 242 243 244 245 245 245 245 246 246 246 245 245 245 247 250 251 250 248 246 244 243 243 245 245 245 245 246 248 250
265 267 267 267 264 260 258 258 260 260 261 264 267 270 272 273 273 271 271 271 276 281 281 278 275 270 265 261 257 253 250 249 247 245 242 240 239 239 239 239 240 241 240 240 240 240 240 240 240 241 241 241 241 242 242 242 243 243 243 243 244 244 245 246 247 248 248 248 248 247 246 246 247 249 249 248 247 245 242 242 243 244 244 244 243 244 246
263 265 266 266 263 259 256 256 258 259 260 262 265 268 270 273 273 271 270 270 271 276 282 285 286 280 270 264 261 258 253 250 250 250 248 246 244 242 240 239 239 240 242 242 243 243 242 242 242 242 242 242 242 242 243 243 243 243 243 243 243 244 244 244 245 246 247 247 248 248 247 247 246 246 247 247 247 246 244 243 242 243 244 244 243 242 243
259 261 262 263 262 259 256 256 258 258 258 259 262 266 269 272 272 270 271 272 272 274 281 288 291 285 275 268 264 261 258 254 252 252 252 251 248 246 245 243 242 241 241 242 243 244 244 243 243 243 243 243 244 244 244 243 243 243 243 243 243 243 243 243 244 244 245 246 246 247 247 247 247 246 246 246 246 247 245 244 243 243 244 245 244 243 242
257 258 259 260 260 259 258 256 257 257 257 258 261 264 267 268 269 269 271 272 272 273 278 284 288 283 277 271 266 263 260 258 255 252 252 253 252 251 249 248 247 245 245 244 245 245 245 244 244 244 244 244 244 244 244 244 244 244 244 244 243 243 243 243 243 243 244 244 245 246 246 246 247 247 247 246 246 247 246 245 244 244 244 245 245 245 244
258 258 259 258 258 259 259 257 257 258 259 259 260 262 263 264 266 269 271 271 271 272 275 281 285 283 278 272 268 265 262 260 258 255 252 252 252 252 252 251 250 249 248 248 248 247 247 247 246 245 244 244 244 245 245 245 245 245 245 245 244 244 244 243 243 243 243 243 244 244 245 246 247 247 247 246 247 247 246 245 245 245 244 245 245 246 246
258 258 258 258 258 258 259 258 257 258 258 259 260 261 261 261 264 267 270 270 270 269 272 279 283 284 280 271 264 263 262 260 258 257 254 252 251 251 251 251 250 249 249 249 249 249 249 248 248 248 246 245 244 244 245 245 245 246 246 246 246 245 245 245 244 244 244 244 243 243 244 245 247 246 246 247 248 248 248 246 245 245 246 245 245 246 247
258 257 257 258 258 257 257 257 257 257 257 258 260 262 261 261 264 268 268 269 269 268 271 278 282 284 283 275 263 257 257 257 257 257 256 253 251 251 251 251 250 249 248 248 249 250 249 248 248 248 248 247 246 245 244 245 245 246 247 247 247 246 246 246 245 245 245 244 244 244 244 245 245 245 246 248 249 249 249 249 248 247 247 247 247 247 247
257 256 257 257 257 255 256 257 258 258 259 261 262 263 264 264 265 267 266 266 268 269 272 277 281 283 284 280 267 255 252 253 254 256 256 254 252 251 252 252 252 251 249 248 248 249 251 250 249 248 247 247 247 246 245 245 245 245 246 246 247 247 247 246 246 246 246 245 245 245 245 246 246 247 248 249 249 249 250 251 251 250 249 249 248 248 248
254 254 255 256 255 255 255 256 258 259 260 262 262 263 264 264 264 263 262 265 268 270 273 276 281 283 284 281 272 258 250 249 250 252 254 254 252 251 252 252 253 253 251 249 248 249 251 252 252 251 249 248 247 246 246 246 246 245 245 245 246 246 247 247 247 247 246 246 246 246 247 247 249 250 250 251 250 250 251 252 252 252 252 251 251 250 250
251 250 252 253 253 254 254 254 255 256 258 260 260 259 260 262 262 262 263 265 267 269 272 276 279 282 283 281 275 262 250 246 248 250 251 253 252 251 251 251 252 253 252 250 248 247 249 251 252 252 251 250 248 247 246 246 246 246 245 245 245 246 246 246 246 247 247 247 247 248 248 249 250 251 252 252 252 252 252 253 253 253 254 254 253 252 251
248 246 247 249 250 251 251 251 252 254 255 257 257 257 257 259 262 264 264 265 266 268 271 275 278 281 281 280 276 265 252 245 245 247 249 251 251 251 251 251 251 251 250 249 247 246 247 249 251 252 251 250 248 247 246 245 245 245 245 245 245 245 245 245 245 246 246 247 248 248 249 249 250 251 252 253 254 254 255 255 255 255 256 256 255 254 253
246 243 243 245 247 247 248 249 251 253 254 256 256 256 257 259 261 263 264 264 265 266 269 272 275 278 279 277 274 267 254 245 244 246 248 249 250 251 252 251 250 249 248 246 245 244 245 247 250 250 250 249 248 247 246 245 244 244 244 244 245 245 244 244 244 245 246 247 248 249 249 249 249 250 251 252 254 255 256 257 257 258 258 259 258 256 254
246 242 241 242 245 246 247 249 252 252 253 255 256 256 258 259 260 261 262 263 264 265 268 270 271 274 275 275 274 268 256 246 244 245 247 248 248 250 252 252 250 249 247 245 244 244 245 247 249 250 250 249 248 246 246 245 244 243 243 243 243 243 243 242 243 244 245 246 248 249 249 250 250 250 251 252 253 255 256 258 258 259 260 262 261 259 256
245 243 241 240 242 245 246 248 251 253 253 254 255 256 258 260 261 261 262 263 264 264 266 267 269 272 274 273 272 268 258 248 245 245 246 247 248 249 252 252 251 249 247 245 245 245 246 248 250 251 251 250 249 247 246 245 244 243 242 242 242 241 241 241 241 242 244 245 247 248 249 250 251 251 252 253 254 255 256 258 259 260 261 263 263 262 260
243 242 240 240 241 243 245 247 249 251 252 253 254 255 257 260 261 261 262 264 265 264 265 266 268 271 272 271 270 267 258 248 245 245 245 246 247 250 253 254 252 249 246 245 245 246 247 249 250 250 250 250 249 248 247 246 245 243 242 242 241 240 239 238 239 240 241 242 244 246 248 250 251 252 253 254 255 256 257 258 259 260 261 263 264 264 263
240 241 241 241 241 242 244 247 248 250 251 252 253 256 259 261 261 260 261 263 263 262 263 266 267 269 269 267 265 263 256 247 243 243 244 245 247 251 254 254 251 248 245 244 244 246 248 249 250 250 250 249 249 249 248 247 246 244 242 241 241 239 237 236 236 237 239 241 243 246 248 250 251 252 253 255 256 257 258 259 260 261 262 264 265 265 265
239 239 239 240 241 241 243 246 250 251 252 252 254 258 260 260 259 259 259 259 258 258 261 263 264 265 264 263 262 260 254 246 242 242 243 245 248 251 254 254 250 246 244 244 245 248 250 251 252 252 251 250 249 248 247 247 245 244 242 241 240 239 236 235 235 236 238 241 243 246 248 249 251 252 254 255 257 258 259 261 263 264 266 267 267 268 268
238 238 238 239 240 241 242 244 247 250 252 254 257 259 260 259 257 255 254 254 256 258 260 261 262 261 261 261 261 259 253 246 242 242 244 246 248 252 254 253 249 246 245 245 247 250 252 253 253 253 252 251 249 247 246 246 245 244 243 242 241 239 237 235 235 237 239 241 243 245 246 248 250 252 254 256 258 260 262 264 266 267 268 269 270 270 270
238 237 237 238 239 241 242 243 245 249 253 256 258 258 257 253 249 247 249 253 257 260 264 266 266 263 260 260 261 260 254 246 242 242 244 246 249 252 252 250 247 245 245 247 249 251 252 251 251 252 252 251 249 247 246 246 245 244 243 243 242 240 238 236 236 237 239 241 242 243 244 246 249 252 255 258 260 263 265 267 269 270 270 271 271 271 271
238 238 237 238 240 242 244 245 245 246 249 252 251 247 242 238 238 243 249 253 256 261 265 266 266 264 263 263 263 259 252 245 242 243 245 247 249 249 247 245 244 244 245 247 248 248 249 249 249 249 250 250 249 248 247 246 246 245 245 244 244 242 239 238 237 238 239 240 240 241 243 245 249 252 256 259 262 265 267 268 269 270 271 271 271 272 272
237 237 237 238 239 241 243 245 244 242 243 241 235 233 236 240 242 246 249 248 250 255 258 258 259 262 265 267 264 258 250 244 242 243 245 247 247 245 241 240 241 243 244 245 246 246 246 247 247 247 248 249 249 248 248 248 247 247 246 246 245 243 241 239 238 238 239 239 240 241 243 246 249 253 257 260 263 265 267 268 269 269 269 270 270 271 273
237 237 237 237 237 237 239 241 241 240 239 237 234 235 241 246 248 247 245 244 245 245 244 246 252 262 272 276 271 258 245 240 240 242 245 246 244 238 234 234 237 240 241 243 243 244 244 245 246 246 247 249 249 249 248 248 248 248 248 247 246 243 241 240 239 239 239 240 240 242 244 246 250 254 257 260 263 264 265 266 266 266 266 265 266 268 270
236 236 236 236 235 234 234 235 237 237 237 236 235 237 241 245 245 243 243 243 241 237 233 233 239 252 270 284 281 261 241 235 239 241 243 243 239 231 227 230 233 235 238 240 241 243 244 245 246 247 248 250 251 251 250 249 249 248 248 248 246 244 241 240 239 239 239 240 241 243 245 247 251 255 258 259 259 260 261 261 261 261 261 261 263 264 267
232 233 234 233 233 233 232 232 232 233 234 234 232 233 237 240 240 239 238 237 234 229 224 219 218 225 244 266 276 263 241 234 238 242 242 240 233 224 222 227 230 232 235 238 241 244 245 246 247 248 248 249 251 251 251 250 250 249 248 247 246 245 243 241 241 240 240 241 242 244 245 249 252 255 255 255 255 255 256 257 258 259 259 260 262 264 267
228 229 230 230 230 231 231 231 230 230 231 230 229 229 232 235 235 233 230 228 225 221 214 206 201 205 220 240 260 261 247 239 241 244 241 235 225 219 220 224 226 229 233 237 239 243 245 245 246 247 248 249 250 250 251 250 250 249 248 247 246 245 244 243 242 242 242 242 243 245 247 250 252 252 251 250 250 251 253 255 257 258 259 260 262 264 267
225 225 226 226 227 227 228 230 230 229 227 225 223 223 224 224 224 224 222 221 220 215 206 198 194 197 204 213 226 240 247 247 245 242 237 228 219 216 218 221 223 226 229 231 232 236 239 240 241 244 247 250 251 252 252 252 252 251 250 248 246 245 244 244 243 243 243 243 244 246 249 250 250 249 247 246 246 248 251 254 256 258 259 261 263 265 268
221 222 223 224 227 227 227 229 228 226 222 219 216 215 213 212 213 215 216 219 217 209 200 200 203 204 203 203 204 213 234 245 242 237 231 224 218 216 218 219 222 226 230 231 230 230 233 236 239 243 248 251 254 256 257 257 258 257 255 252 249 247 246 246 245 245 246 246 247 248 249 248 247 246 244 243 244 246 250 253 255 257 259 261 263 266 270
218 219 220 224 228 229 227 226 224 221 217 214 210 207 206 206 209 211 212 216 216 209 203 206 211 209 205 202 200 205 223 235 233 229 226 222 218 218 220 220 223 226 233 239 238 233 233 238 241 245 249 253 256 258 259 260 260 260 259 257 254 251 249 248 248 248 248 248 248 247 246 244 243 242 242 242 244 247 250 252 254 257 259 262 265 269 272
219 220 222 226 230 228 224 220 218 216 214 210 208 208 208 210 212 212 211 213 215 211 208 210 213 210 206 204 204 210 221 227 224 221 220 220 219 220 222 225 228 230 234 241 243 239 238 242 245 247 251 255 258 260 260 259 259 259 259 259 257 256 253 252 251 250 249 248 247 245 242 240 239 239 240 242 244 247 250 252 254 257 260 263 267 271 274
220 223 225 227 226 222 216 212 209 208 207 206 208 211 214 216 218 218 216 216 215 212 210 212 214 212 209 208 211 215 220 220 218 218 218 218 219 220 223 228 234 237 239 241 242 242 242 244 246 249 253 255 258 259 260 260 259 259 260 260 260 258 257 255 254 253 251 249 246 243 241 239 239 239 240 243 245 248 251 253 255 258 261 264 268 272 275
217 219 220 219 215 211 208 206 206 207 208 210 212 216 220 222 222 221 218 215 211 207 206 209 211 211 211 212 214 216 217 218 218 219 219 218 219 223 226 230 234 238 240 240 241 244 245 245 246 250 253 255 257 258 258 260 261 262 262 263 263 262 260 258 256 254 251 248 244 242 241 240 240 241 243 245 248 251 253 256 257 260 263 266 269 272 274
207 209 209 208 208 207 207 208 210 212 213 215 217 221 225 227 223 217 211 207 205 204 206 209 210 211 211 211 213 215 219 221 222 222 221 220 222 225 227 229 233 237 238 238 242 249 252 251 251 252 252 255 257 257 256 258 263 266 268 269 268 266 264 261 257 254 250 246 243 241 241 241 242 244 246 248 251 253 256 258 260 262 265 267 270 272 274
204 206 208 208 209 210 211 213 215 215 214 214 217 221 225 224 217 209 205 204 206 209 212 213 213 212 213 214 216 219 221 223 224 223 222 222 224 225 226 229 234 237 235 234 240 251 256 257 256 254 253 255 257 257 256 256 260 267 274 276 275 272 270 266 260 255 250 245 242 241 241 242 244 246 248 250 253 255 258 260 262 264 267 268 270 272 274
210 211 212 213 214 216 218 219 220 219 215 213 215 217 218 217 212 208 207 209 213 215 217 217 218 218 219 221 223 225 224 224 225 226 226 226 226 226 227 230 234 235 232 232 238 247 252 253 253 252 253 254 257 258 257 255 257 263 273 279 280 277 273 269 265 259 252 247 244 243 243 244 246 248 250 253 255 258 260 261 263 265 267 269 270 272 273
216 218 219 220 221 222 223 224 224 220 215 213 214 216 216 215 213 212 212 214 217 218 219 219 221 222 223 226 229 230 228 225 225 227 230 231 230 229 228 229 232 233 232 233 238 245 250 251 252 254 255 255 257 258 257 254 254 260 268 276 281 279 273 269 266 262 256 251 248 246 246 247 249 251 253 255 256 259 261 263 264 266 267 269 270 272 273
216 219 220 222 222 223 223 223 221 217 213 212 213 215 216 216 216 216 216 216 218 219 220 221 222 223 226 228 231 232 231 230 228 229 231 233 233 232 229 228 230 232 232 234 237 243 248 251 252 253 254 255 257 258 257 254 254 257 265 273 279 280 276 270 267 264 259 255 251 249 249 250 251 252 254 256 257 260 262 264 266 267 268 270 271 272 273
206 208 212 215 217 217 217 216 216 215 213 213 214 215 216 217 219 219 220 220 221 222 223 224 224 225 226 229 231 232 233 233 233 232 232 233 234 233 230 228 227 229 232 234 237 240 244 247 249 251 253 255 257 258 259 257 256 258 263 270 277 280 279 275 271 267 263 259 255 253 252 253 254 255 256 258 259 261 263 265 267 268 269 270 272 273 275
204 206 209 212 215 216 216 216 216 215 215 215 216 218 219 221 222 224 225 227 228 229 229 229 228 228 229 230 232 234 234 235 235 235 234 234 234 234 231 228 227 229 233 235 237 238 242 246 248 248 250 253 255 257 260 261 260 260 262 267 273 278 279 278 275 272 268 264 260 257 256 256 256 257 258 259 260 261 263 265 267 269 270 272 274 276 277
209 210 211 212 214 216 217 218 219 220 220 221 222 223 225 226 227 228 229 231 233 234 235 235 234 234 234 234 235 236 237 237 238 238 237 236 235 234 232 231 230 231 234 236 236 237 240 244 246 247 248 250 252 255 259 262 264 263 263 264 269 275 278 278 277 274 271 268 264 262 260 258 259 259 260 261 262 263 265 267 269 270 272 274 276 277 279
213 214 215 215 216 217 218 219 220 221 222 224 225 226 229 230 232 233 234 235 236 238 239 239 239 239 239 239 240 240 240 240 240 241 241 240 238 237 234 233 232 233 234 235 236 237 239 243 246 248 250 251 252 253 256 261 264 265 263 262 265 272 277 278 277 275 274 271 269 266 265 263 262 263 263 264 265 267 268 270 271 272 274 275 277 278 279
222 221 221 221 222 222 223 225 225 226 227 227 228 229 231 233 235 236 237 238 239 240 241 241 242 242 243 243 244 244 244 244 243 243 243 243 242 240 238 235 234 234 235 236 236 238 240 243 245 247 249 251 252 253 254 257 261 263 264 262 264 269 276 277 276 274 274 274 272 269 268 267 267 267 268 268 269 270 272 273 274 275 276 277 278 279 280
230 229 229 229 228 228 229 230 231 232 233 234 235 236 237 239 241 243 244 246 247 247 248 248 248 248 248 248 248 247 247 246 246 245 245 245 244 243 241 239 237 236 236 236 236 236 237 240 244 246 248 249 250 251 252 254 257 261 263 263 263 266 271 275 275 273 273 273 273 272 271 270 269 269 270 270 271 273 274 275 276 277 278 279 280 281 281
233 233 233 232 232 233 234 235 236 236 237 238 239 240 241 242 244 245 247 248 249 250 251 252 252 252 252 251 250 249 248 247 246 246 245 245 245 245 244 243 241 240 239 238 237 236 236 237 240 244 246 248 249 249 249 250 252 258 262 262 260 261 265 271 273 274 272 271 271 271 270 269 269 269 270 271 272 273 275 276 277 279 280 281 282 282 283
234 232 230 229 228 228 229 231 233 233 234 234 233 232 233 236 240 243 246 249 251 253 253 252 252 251 251 251 250 250 249 249 247 246 245 244 244 244 244 244 244 243 242 241 241 240 239 240 241 243 245 246 248 249 247 246 248 254 259 260 259 258 261 265 269 272 272 271 269 268 267 267 267 267 269 271 272 274 276 278 280 281 283 283 284 285 285
Height
10804 10804 10804 10805 10807 10807 10807 10808 10808 10807 10807 10806 10805 10804 10804 10802 10801 10799 10798 10798 10798 10799 10801 10803 10804 10805 10806 10807 10808 10809 10812 10814 10817 10820 10822 10825 10828 10832 10835 10838 10841 10845 10849 10853 10857 10861 10864 10868 10870 10873 10876 10880 10884 10887 10890 10893 10896 10898 10901 10903 10905 10907 10910 10913 10914 10916 10919 10921 10924 10926 10927 10927 10928 10930 10932 10934 10935 10936 10937 10938 10939 10940 10941 10942 10943 10944 10945
10799 10801 10801 10801 10803 10803 10804 10804 10805 10805 10804 10804 10803 10802 10801 10800 10798 10797 10796 10795 10794 10795 10797 10799 10801 10802 10802 10803 10804 10805 10808 10810 10812 10814 10817 10819 10822 10826 10829 10832 10835 10839 10843 10847 10850 10854 10858 10862 10865 10868 10870 10874 10877 10881 10885 10888 10890 10893 10896 10898 10900 10902 10905 10907 10909 10912 10914 10916 10918 10920 10921 10921 10924 10927 10929 10930 10931 10932 10933 10934 10935 10936 10937 10938 10939 10940 10941
10795 10797 10798 10798 10798 10799 10800 10800 10802 10802 10801 10801 10801 10800 10799 10798 10796 10794 10793 10792 10791 10792 10793 10795 10796 10798 10799 10800 10801 10802 10804 10806 10808 10810 10812 10814 10816 10819 10823 10826 10829 10833 10837 10841 10844 10848 10851 10855 10858 10861 10865 10868 10871 10875 10878 10882 10884 10887 10890 10893 10895 10897 10899 10902 10904 10907 10909 10911 10913 10914 10915 10916 10920 10923 10925 10925 10926 10927 10929 10930 10931 10932 10933 10934 10935 10937 10938
10791 10792 10794 10795 10795 10796 10797 10797 10797 10797 10797 10797 10797 10797 10797 10796 10794 10792 10791 10789 10788 10788 10789 10790 10792 10794 10796 10797 10798 10799 10801 10803 10805 10806 10808 10809 10811 10814 10817 10820 10823 10827 10831 10834 10838 10841 10845 10848 10851 10855 10858 10862 10865 10868 10872 10875 10878 10881 10884 10887 10890 10892 10894 10896 10898 10901 10904 10906 10907 10908 10909 10911 10915 10918 10920 10921 10921 10923 10924 10926 10928 10928 10929 10930 10931 10933 10934
10786 10788 10790 10791 10791 10793 10794 10793 10792 10792 10793 10793 10793 10793 10793 10793 10792 10790 10788 10786 10785 10785 10785 10785 10787 10790 10792 10794 10795 10795 10797 10800 10801 10802 10804 10805 10807 10809 10811 10814 10817 10821 10824 10828 10831 10834 10838 10841 10845 10848 10851 10855 10858 10862 10865 10868 10871 10874 10877 10880 10883 10886 10888 10890 10892 10895 10898 10900 10902 10903 10904 10906 10909 10913 10915 10917 10917 10919 10920 10922 10923 10923 10924 10925 10927 10928 10929
10782 10784 10786 10787 10788 10790 10789 10788 10787 10787 10788 10789 10789 10789 10790 10789 10789 10788 10786 10784 10783 10782 10781 10781 10782 10785 10787 10789 10791 10792 10793 10795 10796 10798 10799 10800 10802 10804 10806 10809 10811 10815 10818 10822 10825 10827 10830 10834 10837 10841 10844 10847 10851 10854 10858 10861 10864 10867 10869 10872 10876 10879 10881 10884 10886 10889 10891 10894 10896 10897 10898 10900 10903 10906 10909 10911 10913 10914 10916 10917 10918 10919 10920 10921 10922 10923 10924
10777 10779 10780 10783 10785 10786 10784 10782 10783 10783 10784 10784 10784 10785 10786 10786 10785 10785 10783 10782 10781 10779 10778 10778 10778 10780 10782 10784 10786 10787 10788 10790 10791 10793 10794 10796 10797 10799 10801 10804 10806 10810 10813 10816 10818 10821 10824 10827 10830 10833 10836 10839 10843 10846 10849 10853 10856 10859 10862 10865 10868 10871 10874 10877 10880 10882 10884 10887 10889 10891 10892 10894 10896 10899 10902 10904 10907 10909 10911 10912 10913 10914 10915 10916 10917 10919 10920
10771 10773 10775 10778 10781 10781 10779 10778 10778 10779 10779 10779 10779 10780 10781 10781 10781 10781 10780 10779 10778 10777 10775 10774 10775 10776 10777 10779 10780 10782 10784 10785 10787 10788 10789 10790 10792 10795 10797 10799 10802 10805 10808 10810 10812 10815 10818 10820 10822 10825 10829 10832 10835 10838 10841 10844 10847 10850 10853 10856 10859 10863 10866 10869 10872 10875 10877 10880 10882 10884 10885 10886 10888 10891 10894 10897 10900 10903 10905 10906 10907 10908 10910 10911 10913 10914 10916
10765 10767 10770 10773 10775 10775 10774 10773 10773 10774 10774 10774 10774 10775 10776 10777 10777 10777 10776 10776 10775 10774 10772 10772 10773 10773 10774 10774 10776 10778 10780 10781 10781 10782 10784 10786 10789 10791 10793 10795 10797 10800 10802 10804 10806 10808 10811 10813 10816 10818 10821 10824 10827 10830 10833 10835 10838 10841 10844 10848 10851 10854 10857 10860 10863 10866 10869 10871 10874 10876 10877 10879 10881 10883 10886 10889 10892 10895 10897 10899 10901 10902 10904 10906 10908 10910 10911
10759 10762 10764 10767 10769 10770 10769 10767 10768 10769 10769 10769 10770 10770 10771 10772 10773 10772 10771 10772 10772 10771 10770 10769 10770 10771 10771 10770 10771 10773 10775 10776 10777 10779 10780 10782 10784 10786 10787 10790 10792 10795 10797 10798 10800 10802 10804 10806 10809 10812 10814 10816 10819 10822 10825 10828 10830 10833 10836 10839 10843 10846 10849 10852 10854 10857 10860 10862 10865 10867 10870 10872 10874 10876 10878 10881 10884 10887 10889 10891 10894 10895 10897 10899 10901 10904 10906
10753 10756 10758 10760 10762 10764 10763 10761 10762 10764 10765 10765 10766 10766 10766 10767 10767 10767 10767 10768 10768 10768 10767 10767 10768 10768 10767 10767 10767 10768 10770 10772 10774 10776 10777 10778 10779 10781 10782 10785 10787 10789 10791 10792 10794 10795 10797 10800 10803 10805 10807 10809 10812 10815 10818 10820 10823 10826 10829 10832 10835 10838 10841 10844 10846 10849 10852 10854 10857 10860 10862 10865 10867 10869 10871 10873 10876 10878 10881 10883 10886 10888 10890 10892 10894 10897 10898
10746 10749 10752 10754 10756 10757 10757 10756 10757 10758 10759 10760 10762 10762 10762 10762 10761 10761 10763 10764 10764 10764 10764 10764 10764 10764 10764 10764 10764 10764 10766 10768 10770 10772 10773 10774 10775 10776 10778 10780 10782 10783 10785 10786 10787 10789 10791 10794 10796 10799 10801 10803 10805 10808 10810 10813 10816 10818 10821 10824 10827 10831 10834 10836 10839 10842 10845 10847 10850 10853 10856 10858 10860 10862 10864 10866 10868 10871 10873 10876 10878 10881 10882 10884 10887 10889 10891
10738 10741 10745 10748 10749 10750 10750 10751 10752 10753 10754 10755 10757 10757 10757 10756 10755 10757 10758 10759 10760 10760 10760 10760 10761 10760 10760 10760 10760 10761 10762 10763 10765 10766 10768 10769 10771 10772 10773 10774 10776 10778 10779 10780 10782 10783 10786 10788 10790 10792 10795 10797 10799 10801 10804 10806 10809 10811 10814 10817 10820 10823 10826 10829 10832 10835 10838 10841 10844 10846 10849 10851 10853 10855 10857 10859 10861 10863 10865 10868 10870 10873 10874 10876 10879 10881 10883
10731 10734 10737 10741 10743 10744 10744 10745 10747 10748 10748 10749 10750 10750 10751 10751 10751 10752 10754 10754 10755 10756 10756 10756 10756 10757 10757 10756 10756 10757 10758 10759 10760 10761 10762 10764 10766 10767 10768 10769 10771 10772 10774 10775 10777 10779 10780 10782 10784 10786 10789 10791 10793 10795 10798 10800 10802 10805 10808 10811 10813 10816 10819 10822 10825 10828 10831 10834 10837 10839 10842 10844 10846 10848 10850 10852 10854 10856 10858 10860 10862 10864 10866 10868 10870 10872 10875
10723 10727 10730 10734 10737 10738 10738 10738 10740 10742 10742 10742 10743 10744 10745 10745 10746 10747 10749 10749 10749 10751 10752 10752 10752 10752 10753 10753 10752 10752 10753 10754 10755 10756 10757 10759 10761 10762 10763 10764 10766 10767 10769 10771 10772 10774 10775 10777 10779 10781 10783 10785 10787 10789 10791 10794 10796 10799 10801 10804 10806 10809 10811 10814 10817 10820 10824 10827 10829 10832 10835 10837 10839 10841 10844 10846 10848 10849 10851 10853 10855 10857 10858 10860 10862 10864 10866
10715 10719 10723 10727 10729 10730 10730 10732 10733 10735 10735 10735 10737 10738 10739 10739 10741 10742 10743 10744 10744 10745 10747 10748 10748 10748 10749 10749 10748 10748 10748 10748 10750 10751 10753 10754 10756 10757 10758 10759 10761 10762 10764 10765 10767 10769 10770 10772 10774 10776 10777 10779 10781 10783 10785 10788 10790 10793 10795 10797 10799 10802 10804 10807 10810 10813 10816 10819 10822 10825 10828 10830 10832 10834 10836 10838 10840 10842 10844 10846 10847 10849 10850 10852 10854 10855 10857
10709 10713 10716 10718 10721 10723 10724 10726 10727 10727 10728 10729 10731 10733 10734 10734 10735 10737 10737 10738 10739 10740 10741 10743 10743 10744 10745 10745 10744 10743 10743 10744 10745 10747 10748 10749 10751 10752 10753 10754 10756 10757 10759 10760 10762 10763 10765 10767 10769 10770 10772 10773 10775 10777 10779 10782 10784 10787 10789 10791 10793 10795 10797 10800 10803 10806 10809 10812 10815 10818 10820 10823 10825 10827 10829 10831 10833 10835 10837 10839 10840 10841 10842 10844 10845 10846 10848
10703 10706 10708 10711 10714 10716 10718 10720 10721 10721 10721 10723 10726 10729 10729 10728 10729 10731 10732 10733 10735 10735 10736 10737 10738 10739 10740 10740 10739 10738 10738 10739 10741 10742 10744 10745 10746 10748 10749 10750 10751 10753 10754 10755 10757 10758 10760 10762 10764 10765 10766 10768 10770 10772 10774 10776 10778 10780 10783 10785 10787 10789 10791 10794 10797 10799 10802 10805 10807 10810 10813 10815 10817 10819 10821 10823 10825 10827 10828 10830 10832 10834 10835 10836 10837 10838 10839
10696 10698 10700 10703 10706 10708 10710 10713 10715 10715 10715 10717 10720 10723 10723 10722 10724 10726 10727 10728 10730 10730 10731 10732 10733 10734 10735 10735 10734 10734 10734 10736 10737 10738 10739 10741 10742 10744 10745 10746 10747 10748 10749 10750 10752 10754 10756 10758 10760 10761 10762 10763 10764 10766 10768 10770 10772 10774 10777 10779 10781 10783 10785 10788 10790 10793 10795 10798 10800 10803 10806 10808 10810 10812 10814 10815 10817 10819 10820 10822 10824 10825 10827 10828 10829 10830 10831
10688 10690 10693 10696 10698 10700 10702 10706 10709 10710 10710 10710 10714 10716 10716 10717 10719 10720 10721 10723 10725 10726 10726 10728 10729 10730 10730 10730 10730 10730 10731 10731 10732 10734 10736 10738 10739 10740 10740 10741 10742 10743 10744 10745 10747 10749 10751 10753 10755 10756 10757 10758 10759 10760 10762 10764 10767 10769 10771 10773 10775 10777 10779 10782 10784 10786 10789 10792 10794 10796 10798 10800 10802 10804 10806 10808 10809 10811 10812 10814 10815 10817 10819 10820 10821 10822 10823
10680 10683 10686 10689 10691 10692 10696 10699 10702 10704 10704 10704 10706 10708 10709 10711 10713 10715 10716 10718 10720 10721 10722 10723 10724 10725 10725 10725 10725 10726 10727 10727 10729 10730 10732 10734 10735 10735 10736 10736 10737 10738 10740 10741 10743 10745 10747 10749 10751 10752 10753 10753 10754 10755 10757 10759 10762 10764 10766 10767 10769 10771 10773 10775 10778 10781 10783 10785 10787 10789 10791 10793 10795 10797 10799 10800 10802 10804 10805 10807 10808 10809 10811 10812 10812 10813 10815
10672 10675 10679 10682 10684 10686 10690 10693 10695 10697 10698 10699 10700 10702 10702 10704 10707 10709 10710 10712 10715 10716 10717 10718 10719 10720 10721 10721 10721 10722 10723 10723 10725 10727 10729 10730 10730 10730 10731 10732 10733 10734 10736 10737 10739 10741 10743 10745 10747 10748 10748 10749 10750 10751 10752 10755 10757 10759 10760 10762 10763 10765 10767 10770 10772 10775 10777 10779 10781 10783 10785 10787 10788 10790 10792 10794 10795 10797 10799 10800 10801 10802 10803 10804 10804 10805 10806
10664 10667 10671 10675 10677 10680 10683 10684 10687 10689 10691 10693 10695 10696 10697 10699 10701 10703 10705 10707 10710 10711 10712 10713 10714 10716 10717 10717 10718 10718 10719 10720 10722 10723 10725 10725 10726 10726 10727 10729 10730 10731 10732 10734 10736 10738 10739 10741 10743 10744 10744 10745 10745 10746 10748 10750 10752 10754 10756 10757 10758 10760 10762 10764 10767 10769 10771 10773 10775 10777 10779 10780 10782 10783 10785 10787 10789 10790 10792 10793 10794 10795 10796 10796 10797 10798 10799
10655 10659 10664 10668 10671 10674 10674 10676 10679 10682 10685 10687 10689 10690 10692 10694 10696 10698 10700 10702 10704 10706 10707 10708 10709 10711 10713 10713 10713 10714 10715 10716 10718 10719 10720 10721 10722 10724 10725 10726 10726 10728 10729 10731 10733 10734 10736 10737 10739 10740 10741 10741 10741 10743 10744 10746 10748 10750 10751 10753 10754 10755 10757 10759 10762 10764 10766 10768 10770 10771 10773 10774 10776 10777 10779 10781 10782 10784 10785 10786 10787 10788 10789 10790 10790 10791 10792
10648 10652 10657 10660 10664 10667 10668 10670 10673 10675 10678 10680 10682 10684 10686 10688 10690 10693 10695 10697 10699 10701 10702 10703 10705 10707 10708 10709 10709 10710 10711 10713 10714 10716 10717 10718 10720 10721 10722 10723 10723 10725 10727 10728 10730 10731 10733 10734 10735 10736 10737 10737 10738 10739 10740 10742 10744 10746 10747 10749 10750 10751 10753 10755 10757 10759 10761 10763 10764 10766 10767 10768 10770 10771 10773 10775 10776 10778 10779 10780 10781 10782 10782 10783 10783 10784 10784
10641 10645 10649 10653 10657 10660 10662 10665 10667 10668 10670 10672 10675 10678 10680 10682 10684 10687 10689 10690 10692 10694 10697 10699 10700 10702 10703 10704 10705 10706 10708 10710 10712 10713 10715 10716 10717 10718 10719 10720 10721 10723 10724 10725 10727 10729 10730 10731 10732 10733 10733 10734 10735 10736 10737 10738 10740 10742 10743 10745 10746 10747 10749 10751 10753 10754 10756 10758 10759 10761 10762 10763 10765 10766 10767 10769 10771 10772 10773 10774 10775 10776 10776 10776 10776 10776 10776
10633 10638 10642 10646 10649 10652 10655 10659 10662 10663 10663 10666 10669 10671 10673 10676 10678 10680 10682 10685 10687 10689 10691 10694 10696 10697 10699 10700 10701 10703 10705 10707 10709 10711 10713 10714 10715 10716 10717 10718 10719 10720 10721 10723 10724 10726 10727 10728 10729 10730 10730 10731 10732 10733 10734 10735 10737 10738 10740 10741 10742 10743 10745 10747 10748 10750 10751 10753 10755 10756 10758 10759 10760 10761 10762 10764 10765 10767 10768 10769 10769 10770 10770 10770 10770 10769 10769
10626 10631 10636 10640 10643 10645 10647 10651 10656 10657 10658 10662 10666 10668 10669 10671 10674 10676 10678 10681 10683 10684 10686 10688 10690 10692 10694 10696 10698 10700 10702 10705 10707 10709 10710 10711 10712 10713 10714 10715 10716 10718 10719 10720 10722 10723 10724 10724 10725 10726 10727 10727 10729 10730 10731 10732 10734 10735 10736 10737 10738 10740 10741 10743 10744 10746 10747 10749 10751 10752 10754 10755 10756 10757 10758 10759 10761 10762 10763 10763 10764 10764 10764 10764 10763 10763 10762
10621 10625 10629 10633 10636 10638 10640 10643 10648 10651 10654 10658 10663 10664 10664 10666 10669 10671 10674 10677 10678 10679 10681 10683 10685 10687 10690 10692 10694 10696 10699 10702 10705 10706 10707 10708 10710 10710 10711 10713 10714 10715 10716 10717 10719 10720 10720 10721 10722 10723 10724 10724 10725 10727 10728 10729 10730 10731 10733 10734 10735 10736 10738 10739 10741 10742 10743 10745 10746 10748 10750 10751 10752 10753 10754 10755 10756 10757 10758 10759 10759 10759 10759 10759 10759 10758 10757
10615 10618 10621 10625 10629 10632 10633 10636 10640 10644 10647 10651 10654 10655 10656 10659 10663 10666 10669 10671 10672 10673 10675 10676 10678 10682 10685 10688 10690 10693 10696 10699 10701 10702 10704 10705 10707 10708 10709 10710 10712 10712 10713 10714 10715 10716 10717 10717 10718 10719 10720 10721 10722 10723 10725 10726 10727 10728 10729 10730 10731 10732 10734 10735 10737 10738 10739 10741 10742 10744 10745 10747 10748 10749 10750 10751 10752 10752 10753 10754 10755 10755 10755 10755 10755 10754 10753
10608 10611 10614 10618 10621 10624 10627 10630 10633 10635 10639 10643 10646 10648 10650 10653 10657 10661 10664 10666 10667 10668 10669 10670 10672 10676 10682 10686 10688 10690 10694 10696 10697 10698 10700 10702 10703 10705 10707 10708 10708 10709 10709 10710 10711 10712 10713 10714 10715 10716 10717 10717 10719 10720 10721 10723 10724 10725 10726 10727 10728 10729 10730 10732 10733 10734 10735 10737 10738 10739 10741 10742 10743 10744 10745 10746 10747 10748 10749 10750 10750 10751 10751 10751 10751 10750 10750
10601 10604 10607 10610 10613 10616 10619 10622 10625 10628 10631 10636 10640 10642 10644 10647 10651 10654 10657 10660 10662 10664 10666 10666 10668 10673 10681 10687 10688 10689 10691 10693 10694 10695 10697 10700 10702 10703 10704 10705 10705 10706 10707 10708 10709 10710 10710 10711 10711 10712 10713 10714 10715 10716 10718 10719 10721 10722 10723 10723 10724 10725 10727 10728 10729 10730 10731 10732 10734 10735 10736 10738 10739 10740 10741 10742 10743 10744 10745 10745 10746 10747 10747 10747 10747 10746 10746
10595 10598 10600 10603 10606 10608 10611 10615 10618 10621 10624 10629 10633 10637 10639 10642 10645 10648 10651 10655 10658 10661 10662 10663 10664 10669 10678 10686 10689 10690 10691 10692 10692 10694 10696 10698 10699 10700 10701 10702 10704 10705 10705 10706 10707 10707 10707 10708 10708 10709 10710 10711 10712 10713 10714 10716 10717 10718 10719 10720 10721 10722 10723 10724 10725 10726 10727 10729 10730 10731 10732 10733 10734 10736 10737 10738 10739 10740 10741 10741 10742 10742 10743 10743 10743 10742 10742
10589 10591 10594 10597 10600 10603 10605 10608 10611 10614 10619 10623 10627 10630 10634 10638 10641 10644 10648 10651 10654 10657 10660 10661 10661 10663 10669 10676 10683 10689 10692 10691 10691 10692 10693 10694 10695 10697 10699 10700 10701 10702 10703 10704 10704 10705 10705 10706 10706 10706 10707 10707 10709 10710 10711 10712 10713 10714 10715 10716 10717 10718 10719 10720 10721 10722 10723 10724 10725 10726 10727 10729 10730 10731 10733 10734 10735 10736 10737 10737 10738 10738 10739 10739 10739 10738 10738
10585 10587 10590 10593 10596 10598 10600 10602 10605 10609 10613 10618 10622 10625 10629 10633 10637 10640 10644 10647 10650 10653 10657 10658 10657 10659 10662 10667 10674 10684 10690 10689 10688 10689 10690 10691 10693 10695 10696 10697 10698 10699 10700 10700 10701 10702 10703 10703 10704 10704 10704 10705 10705 10706 10707 10708 10709 10710 10711 10712 10713 10714 10715 10715 10716 10717 10718 10719 10720 10721 10723 10724 10725 10727 10728 10730 10731 10732 10733 10733 10733 10734 10734 10734 10734 10734 10734
10581 10584 10587 10589 10591 10593 10596 10598 10601 10605 10609 10613 10618 10621 10624 10628 10632 10636 10640 10643 10646 10649 10652 10653 10655 10658 10663 10667 10672 10680 10685 10685 10684 10685 10687 10689 10691 10692 10692 10693 10694 10695 10696 10697 10697 10699 10700 10701 10702 10702 10702 10702 10702 10703 10704 10705 10706 10707 10707 10708 10709 10709 10710 10710 10711 10711 10713 10714 10715 10716 10717 10719 10720 10722 10724 10725 10726 10727 10728 10728 10729 10729 10729 10730 10730 10730 10730
10578 10581 10583 10585 10587 10590 10593 10596 10599 10603 10607 10612 10616 10620 10622 10625 10629 10633 10636 10639 10641 10643 10647 10649 10651 10655 10660 10664 10669 10674 10676 10677 10678 10680 10682 10684 10687 10688 10689 10690 10691 10692 10692 10693 10694 10695 10697 10698 10698 10699 10699 10700 10700 10700 10701 10702 10702 10703 10704 10704 10705 10705 10705 10706 10706 10707 10708 10709 10710 10711 10712 10714 10715 10717 10719 10720 10721 10722 10723 10723 10724 10724 10724 10725 10725 10725 10725
10575 10578 10580 10582 10585 10588 10591 10595 10598 10602 10606 10611 10615 10618 10620 10623 10626 10629 10632 10634 10636 10638 10641 10645 10647 10651 10654 10659 10663 10666 10668 10671 10673 10675 10676 10679 10682 10684 10685 10686 10687 10687 10688 10689 10690 10692 10693 10694 10694 10695 10696 10696 10697 10697 10697 10698 10699 10699 10700 10700 10700 10700 10701 10701 10702 10702 10703 10704 10705 10706 10707 10709 10711 10712 10714 10715 10716 10717 10718 10718 10719 10719 10720 10720 10720 10720 10720
10572 10575 10578 10581 10584 10587 10591 10594 10598 10601 10605 10609 10612 10614 10617 10619 10622 10624 10627 10629 10632 10634 10638 10641 10644 10646 10650 10654 10658 10661 10663 10666 10668 10669 10672 10675 10677 10679 10680 10682 10682 10682 10684 10686 10687 10688 10688 10690 10691 10692 10692 10692 10693 10693 10694 10694 10695 10695 10695 10696 10696 10696 10696 10697 10697 10698 10699 10699 10700 10702 10703 10705 10706 10707 10709 10710 10711 10712 10712 10713 10713 10714 10715 10715 10715 10715 10715
10571 10573 10577 10580 10583 10586 10589 10593 10596 10599 10602 10605 10608 10611 10613 10615 10617 10619 10622 10626 10629 10632 10635 10638 10641 10643 10647 10650 10654 10657 10660 10662 10663 10665 10669 10672 10673 10673 10675 10677 10677 10678 10680 10682 10683 10683 10684 10686 10687 10688 10688 10689 10689 10690 10690 10690 10691 10691 10691 10692 10692 10692 10692 10692 10693 10694 10694 10695 10696 10698 10699 10700 10702 10703 10704 10705 10706 10707 10707 10707 10708 10708 10709 10710 10710 10709 10709
10570 10572 10575 10578 10582 10585 10587 10590 10593 10596 10599 10601 10604 10606 10608 10610 10612 10615 10619 10623 10626 10629 10631 10633 10636 10639 10643 10646 10649 10653 10655 10657 10658 10661 10665 10667 10667 10668 10671 10673 10673 10674 10676 10678 10679 10679 10680 10682 10683 10683 10684 10685 10685 10686 10686 10687 10687 10687 10687 10687 10688 10688 10688 10688 10689 10689 10690 10691 10692 10694 10695 10696 10698 10699 10700 10701 10701 10701 10702 10702 10702 10703 10703 10704 10704 10704 10704
10568 10570 10573 10576 10579 10581 10584 10587 10590 10592 10595 10598 10600 10602 10604 10606 10609 10612 10616 10619 10622 10625 10627 10630 10632 10635 10639 10642 10645 10647 10650 10651 10654 10656 10658 10660 10661 10664 10667 10669 10669 10670 10671 10673 10674 10674 10675 10676 10677 10678 10680 10681 10681 10682 10682 10683 10683 10683 10683 10683 10684 10684 10684 10684 10685 10685 10686 10687 10688 10689 10691 10692 10693 10694 10695 10696 10696 10696 10696 10696 10697 10698 10698 10698 10698 10698 10698
10565 10568 10570 10573 10575 10578 10580 10583 10586 10589 10592 10594 10597 10599 10602 10604 10607 10610 10613 10616 10619 10621 10624 10627 10629 10632 10635 10637 10640 10642 10644 10646 10649 10651 10652 10654 10657 10659 10662 10664 10665 10665 10667 10668 10669 10670 10671 10673 10674 10674 10676 10676 10677 10677 10678 10678 10679 10679 10679 10679 10680 10680 10680 10680 10681 10681 10682 10683 10684 10685 10686 10687 10688 10689 10690 10690 10690 10690 10690 10691 10691 10692 10692 10691 10692 10692 10691
10563 10565 10567 10570 10572 10575 10577 10580 10582 10585 10588 10591 10594 10596 10598 10601 10603 10606 10609 10612 10614 10617 10619 10622 10625 10628 10630 10633 10635 10637 10639 10642 10644 10646 10648 10649 10651 10653 10656 10659 10660 10661 10662 10664 10665 10666 10668 10669 10670 10670 10671 10672 10672 10673 10673 10674 10674 10674 10675 10675 10675 10676 10676 10676 10676 10677 10677 10678 10679 10680 10681 10682 10683 10683 10684 10685 10685 10685 10685 10685 10685 10685 10685 10685 10685 10685 10684
10562 10563 10565 10567 10569 10572 10574 10577 10579 10582 10584 10587 10590 10592 10595 10597 10600 10602 10605 10607 10610 10613 10615 10618 10620 10623 10626 10628 10630 10632 10634 10637 10639 10640 10642 10643 10645 10648 10651 10654 10656 10656 10657 10659 10660 10662 10663 10665 10665 10666 10667 10667 10667 10668 10669 10669 10669 10670 10671 10671 10671 10672 10672 10672 10672 10672 10673 10673 10674 10675 10676 10677 10677 10678 10678 10679 10680 10680 10679 10679 10678 10678 10678 10678 10678 10677 10677
10561 10562 10564 10566 10568 10570 10572 10574 10577 10579 10582 10585 10587 10590 10592 10594 10597 10599 10601 10604 10606 10609 10611 10614 10616 10619 10621 10623 10625 10627 10629 10631 10633 10634 10636 10638 10640 10644 10647 10649 10651 10651 10652 10654 10655 10657 10659 10660 10660 10661 10662 10662 10663 10664 10664 10665 10665 10666 10666 10667 10667 10668 10668 10668 10668 10668 10668 10668 10669 10669 10670 10671 10671 10672 10673 10674 10674 10674 10674 10673 10673 10673 10672 10672 10671 10670 10670
10560 10562 10563 10565 10567 10569 10571 10573 10576 10578 10580 10582 10585 10587 10589 10591 10594 10596 10598 10601 10603 10605 10608 10610 10612 10614 10617 10619 10620 10622 10624 10626 10627 10629 10630 10632 10635 10638 10641 10643 10645 10646 10647 10649 10651 10653 10654 10654 10655 10656 10656 10657 10659 10659 10660 10660 10661 10661 10662 10663 10663 10664 10664 10664 10663 10663 10663 10663 10663 10664 10664 10665 10665 10666 10667 10667 10668 10668 10668 10667 10667 10667 10666 10666 10665 10664 10663
10558 10560 10562 10564 10566 10567 10569 10571 10573 10575 10577 10579 10582 10584 10586 10588 10590 10593 10595 10597 10600 10602 10604 10606 10608 10610 10612 10614 10615 10617 10618 10620 10621 10623 10624 10626 10629 10632 10635 10637 10639 10641 10642 10643 10645 10647 10649 10649 10650 10650 10651 10652 10653 10655 10656 10656 10657 10657 10658 10658 10659 10660 10660 10660 10659 10659 10659 10658 10658 10659 10659 10659 10659 10660 10660 10660 10660 10661 10661 10661 10661 10660 10660 10659 10658 10657 10656
10557 10559 10560 10562 10563 10565 10567 10568 10570 10571 10574 10576 10578 10581 10583 10585 10587 10590 10592 10594 10596 10598 10599 10601 10603 10605 10606 10608 10610 10611 10612 10613 10614 10616 10618 10620 10621 10624 10627 10630 10632 10634 10635 10637 10641 10646 10647 10646 10644 10644 10644 10646 10648 10650 10651 10652 10653 10654 10654 10654 10655 10655 10655 10655 10655 10655 10654 10654 10654 10654 10654 10654 10655 10655 10654 10654 10654 10654 10654 10654 10653 10653 10653 10652 10651 10651 10650
10555 10557 10558 10559 10561 10562 10564 10565 10566 10568 10571 10573 10575 10578 10580 10582 10584 10586 10588 10589 10591 10593 10594 10596 10597 10598 10600 10601 10602 10603 10604 10605 10606 10608 10610 10611 10613 10615 10618 10621 10623 10626 10628 10631 10637 10641 10641 10638 10636 10637 10638 10639 10642 10644 10645 10647 10649 10650 10650 10650 10650 10651 10651 10651 10650 10650 10649 10649 10649 10650 10650 10650 10650 10650 10649 10649 10649 10648 10647 10647 10646 10646 10645 10645 10644 10643 10643
10552 10554 10555 10556 10558 10559 10561 10562 10564 10565 10567 10569 10572 10574 10576 10578 10580 10582 10583 10584 10586 10587 10588 10590 10591 10591 10592 10593 10594 10595 10595 10596 10597 10599 10601 10602 10603 10606 10608 10611 10615 10618 10620 10623 10627 10630 10631 10631 10631 10631 10632 10633 10636 10637 10639 10641 10644 10646 10646 10646 10646 10646 10646 10646 10646 10645 10645 10645 10645 10645 10645 10645 10645 10644 10644 10643 10643 10642 10641 10641 10640 10639 10639 10638 10637 10636 10635
10549 10550 10551 10553 10555 10556 10558 10559 10561 10562 10564 10566 10568 10570 10572 10574 10576 10578 10579 10580 10581 10582 10583 10584 10585 10585 10585 10586 10586 10587 10587 10588 10589 10590 10591 10592 10594 10596 10598 10601 10604 10607 10610 10612 10616 10619 10621 10623 10624 10624 10625 10627 10629 10630 10632 10636 10639 10641 10641 10641 10641 10642 10642 10642 10641 10641 10640 10640 10640 10640 10640 10640 10640 10639 10638 10638 10637 10636 10635 10635 10634 10633 10632 10631 10630 10628 10627